Pittsfield, IL

6:32 AM CDT on June 26, 2017 (GMT -0500)
Pittsfield Penstone Municipal

Weather History for KPPQ - November, 2012

Change the Weather History Date:

Tuesday, November 27, 2012

  Actual Average (KUIN) Record (KUIN)
Temperature  
Mean Temperature 28 °F -  
Max Temperature 37 °F 43 °F 72 °F (1909)
Min Temperature 18 °F 29 °F 8 °F (1955)
Degree Days  
Heating Degree Days 38    
Moisture  
Dew Point 16 °F    
Average Humidity 61    
Maximum Humidity 85    
Minimum Humidity 39    
Precipitation  
Precipitation 0.00 in - - ()
Sea Level Pressure  
Sea Level Pressure 30.37 in    
Wind  
Wind Speed 4 mph (SW)    
Max Wind Speed 8 mph    
Max Gust Speed -    
Visibility 10 miles    
Events      
Averages and records for this station are not official NWS values.
T = Trace of Precipitation, MM = Missing Value Source: NWS Daily Summary

Daily Weather History Graph

Daily Weather History Graph

Search for Another Location

Airport or City:

Trip Planner

Search our weather history database for the weather conditions in past years. The results will help you decide how hot, cold, wet, or windy it might be!

Date:

Astronomy

Nov. 27, 2012 Rise Set
Actual Time 7:01 AM CST 4:40 PM CST
Civil Twilight 6:31 AM CST 5:10 PM CST
Nautical Twilight 5:58 AM CST 5:43 PM CST
Astronomical Twilight 5:25 AM CST 6:15 PM CST
Moon 4:12 PM CST (11/27) 6:06 AM CST (11/27)
Length of Visible Light 10h 38m
Length of Day
9h 39m
Waxing Gibbous, 99% of the Moon is Illuminated
Nov 27
Waxing Gibbous
Nov 28
Full
Dec 6
Last Quarter
Dec 13
New
Dec 19
First Quarter

Hourly Weather History & Observations

Time (CST) Temp. Windchill Dew Point Humidity Pressure Visibility Wind Dir Wind Speed Gust Speed Precip Events Conditions
1:35 AM 23.0 °F 14.7 °F 16.5 °F 76% 30.41 in 10.0 mi NNW 6.9 mph - N/A   Clear
4:15 AM 20.7 °F 15.8 °F 14.9 °F 78% 30.40 in 10.0 mi West 3.5 mph - N/A   Clear
4:35 AM 20.5 °F 14.0 °F 14.7 °F 78% 30.41 in 10.0 mi NW 4.6 mph - N/A   Clear
4:55 AM 19.2 °F 14.1 °F 14.9 °F 83% 30.41 in 10.0 mi WNW 3.5 mph - N/A   Clear
5:15 AM 18.5 °F 11.7 °F 14.0 °F 83% 30.43 in 10.0 mi West 4.6 mph - N/A   Clear
5:35 AM 19.4 °F 14.3 °F 14.5 °F 81% 30.42 in 10.0 mi WNW 3.5 mph - N/A   Clear
5:55 AM 19.4 °F 14.3 °F 14.0 °F 80% 30.42 in 10.0 mi WNW 3.5 mph - N/A   Clear
6:15 AM 19.4 °F 14.3 °F 14.0 °F 80% 30.43 in 10.0 mi WNW 3.5 mph - N/A   Clear
6:35 AM 18.5 °F 11.7 °F 14.0 °F 83% 30.43 in 10.0 mi WNW 4.6 mph - N/A   Clear
6:55 AM 18.1 °F - 13.6 °F 83% 30.44 in 10.0 mi Calm Calm - N/A   Clear
7:15 AM 18.0 °F - 13.8 °F 84% 30.44 in 10.0 mi Calm Calm - N/A   Clear
7:35 AM 18.5 °F 13.3 °F 14.5 °F 85% 30.45 in 10.0 mi West 3.5 mph - N/A   Clear
7:55 AM 19.8 °F 14.7 °F 15.1 °F 82% 30.45 in 10.0 mi WNW 3.5 mph - N/A   Clear
8:15 AM 21.0 °F - 15.4 °F 79% 30.46 in 10.0 mi Calm Calm - N/A   Clear
8:35 AM 22.1 °F 17.4 °F 16.3 °F 79% 30.46 in 10.0 mi NW 3.5 mph - N/A   Clear
8:55 AM 23.7 °F 19.3 °F 16.9 °F 75% 30.46 in 10.0 mi NNW 3.5 mph - N/A   Clear
9:15 AM 26.1 °F 20.5 °F 15.6 °F 65% 30.46 in 10.0 mi NE 4.6 mph - N/A   Clear
9:35 AM 27.3 °F - 16.3 °F 63% 30.46 in 10.0 mi Calm Calm - N/A   Clear
9:55 AM 28.8 °F - 16.0 °F 59% 30.47 in 10.0 mi Calm Calm - N/A   Clear
10:15 AM 28.6 °F - 17.1 °F 62% 30.47 in 10.0 mi Calm Calm - N/A   Clear
10:35 AM 29.3 °F - 16.0 °F 58% 30.47 in 10.0 mi Calm Calm - N/A   Clear
10:55 AM 30.2 °F - 17.6 °F 60% 30.45 in 10.0 mi Calm Calm - N/A   Clear
11:15 AM 31.3 °F 27.9 °F 16.9 °F 55% 30.45 in 10.0 mi SSW 3.5 mph - N/A   Clear
11:35 AM 32.0 °F - 16.3 °F 52% 30.43 in 10.0 mi Calm Calm - N/A   Clear
11:55 AM 32.4 °F - 15.6 °F 50% 30.41 in 10.0 mi Calm Calm - N/A   Clear
12:15 PM 34.2 °F 31.2 °F 16.7 °F 49% 30.40 in 10.0 mi South 3.5 mph - N/A   Clear
12:35 PM 34.7 °F - 17.1 °F 49% 30.39 in 10.0 mi Calm Calm - N/A   Clear
12:55 PM 34.9 °F 30.8 °F 16.3 °F 47% 30.38 in 10.0 mi SSW 4.6 mph - N/A   Clear
1:15 PM 35.6 °F 31.7 °F 16.3 °F 46% 30.37 in 10.0 mi South 4.6 mph - N/A   Clear
1:35 PM 35.8 °F - 16.7 °F 46% 30.36 in 10.0 mi Calm Calm - N/A   Clear
1:55 PM 36.1 °F 31.4 °F 15.1 °F 42% 30.34 in 10.0 mi SSW 5.8 mph - N/A   Clear
2:15 PM 36.7 °F 32.9 °F 13.6 °F 39% 30.34 in 10.0 mi SW 4.6 mph - N/A   Clear
2:35 PM 36.7 °F 32.0 °F 13.5 °F 39% 30.33 in 10.0 mi SSW 5.8 mph - N/A   Clear
2:55 PM 37.0 °F 31.0 °F 14.4 °F 40% 30.33 in 10.0 mi SW 8.1 mph - N/A   Clear
3:15 PM 37.0 °F 32.4 °F 15.8 °F 42% 30.33 in 10.0 mi SSW 5.8 mph - N/A   Clear
3:35 PM 37.2 °F 32.6 °F 16.0 °F 42% 30.32 in 10.0 mi SW 5.8 mph - N/A   Clear
3:55 PM 36.9 °F 32.2 °F 16.7 °F 44% 30.32 in 10.0 mi SW 5.8 mph - N/A   Clear
4:15 PM 36.1 °F 32.3 °F 16.9 °F 46% 30.32 in 10.0 mi South 4.6 mph - N/A   Clear
4:35 PM 35.6 °F 32.8 °F 17.6 °F 48% 30.31 in 10.0 mi South 3.5 mph - N/A   Clear
4:55 PM 34.3 °F 30.2 °F 16.7 °F 49% 30.31 in 10.0 mi SSW 4.6 mph - N/A   Clear
5:15 PM 33.4 °F 29.1 °F 17.2 °F 52% 30.31 in 10.0 mi South 4.6 mph - N/A   Clear
5:35 PM 32.0 °F 27.5 °F 17.2 °F 55% 30.31 in 10.0 mi South 4.6 mph - N/A   Clear
5:55 PM 32.0 °F 27.5 °F 17.1 °F 54% 30.30 in 10.0 mi South 4.6 mph - N/A   Clear
6:15 PM 31.5 °F 28.1 °F 16.7 °F 54% 30.31 in 10.0 mi South 3.5 mph - N/A   Clear
6:35 PM 31.8 °F - 16.5 °F 53% 30.30 in 10.0 mi Calm Calm - N/A   Clear
6:55 PM 30.6 °F - 16.7 °F 56% 30.31 in 10.0 mi Calm Calm - N/A   Clear
7:15 PM 31.8 °F - 16.3 °F 53% 30.31 in 10.0 mi Calm Calm - N/A   Clear
7:35 PM 29.5 °F 25.9 °F 17.1 °F 60% 30.32 in 10.0 mi SSW 3.5 mph - N/A   Clear
7:55 PM 28.4 °F - 17.8 °F 64% 30.33 in 10.0 mi Calm Calm - N/A   Clear
8:15 PM 26.6 °F 21.2 °F 19.6 °F 75% 30.33 in 10.0 mi SSW 4.6 mph - N/A   Clear
8:35 PM 29.8 °F 23.9 °F 19.2 °F 65% 30.33 in 10.0 mi SW 5.8 mph - N/A   Clear
8:55 PM 30.9 °F 25.2 °F 18.3 °F 60% 30.33 in 10.0 mi SW 5.8 mph - N/A   Clear
9:15 PM 31.6 °F 27.0 °F 18.3 °F 58% 30.32 in 10.0 mi SW 4.6 mph - N/A   Clear
9:35 PM 31.3 °F 26.6 °F 18.1 °F 58% 30.32 in 10.0 mi SW 4.6 mph - N/A   Clear
9:55 PM 31.5 °F 26.8 °F 18.0 °F 57% 30.32 in 10.0 mi SW 4.6 mph - N/A   Clear
10:15 PM 30.2 °F 24.3 °F 18.5 °F 62% 30.31 in 10.0 mi SW 5.8 mph - N/A   Clear
10:35 PM 32.0 °F 26.4 °F 17.6 °F 55% 30.32 in 10.0 mi SW 5.8 mph - N/A   Clear
10:55 PM 31.6 °F 24.4 °F 18.9 °F 59% 30.32 in 10.0 mi SW 8.1 mph - N/A   Scattered Clouds
11:15 PM 31.1 °F 25.4 °F 18.7 °F 60% 30.33 in 10.0 mi WSW 5.8 mph - N/A   Mostly Cloudy
11:35 PM 32.0 °F 26.4 °F 19.4 °F 60% 30.33 in 10.0 mi WSW 5.8 mph - N/A   Scattered Clouds
11:55 PM 32.0 °F 26.4 °F 18.5 °F 58% 30.33 in 10.0 mi WSW 5.8 mph - N/A   Clear